Location: Corralito
(10.2667°N, 66.9500°W)
Time: 18:27:02
(UTC+00:00)

SL-4 R/B - Pass Details

Date: 23 March 2023
Orbit: 421 x 634 km, 51.6° (Epoch: 08 June)

Event Time Altitude Azimuth Distance (km) Brightness Sun altitude
Rises 22:53:30 0° 214° (SW) 2,849 6.1 -4.5°
Reaches altitude 10° 22:55:45 10° 213° (SSW) 1,970 5.3 -5.1°
Maximum altitude 23:00:18 81° 127° (SE) 640 2.3 -6.2°
Drops below altitude 10° 23:04:59 10° 39° (NE) 2,018 4.6 -7.3°
Sets 23:07:19 0° 38° (NE) 2,925 5.4 -7.9°
